START_TIME,STEP,MOV.,M34,t_acc.,L5,t_acc.,L18,t_acc.,L14,t_acc.
1979-07-13 00:00:25.060 ,0,0,0.,12.0,0.,12.0,0.,12.0,0.,12.0
1979-07-13 00:00:37.060 ,0,0,1.,12.0,0.,12.0,0.,12.0,0.,12.0
1979-07-13 00:00:49.060 ,1,1,0.,12.0,0.,12.0,0.,12.0,0.,12.0
1979-07-13 00:01:01.060 ,1,1,0.,12.0,0.,12.0,0.,12.0,0.,12.0
1979-07-13 00:01:13.060 ,1,0,1.,12.0,0.,12.0,0.,12.0,0.,12.0
1979-07-13 00:01:25.060 ,1,0,0.,12.0,0.,12.0,0.,12.0,0.,12.0
1979-07-13 00:01:37.060 ,2,1,0.,12.0,0.,12.0,0.,12.0,0.,12.0
1979-07-13 00:01:49.060 ,2,1,1.,12.0,0.,12.0,0.,12.0,0.,12.0
1979-07-13 00:02:01.060 ,2,0,0.,12.0,0.,12.0,0.,12.0,0.,12.0
1979-07-13 00:02:13.060 ,2,0,0.,12.0,0.,12.0,0.,12.0,0.,12.0
1979-07-13 00:02:25.060 ,3,1,2.,12.0,0.,12.0,0.,12.0,1.,12.0
1979-07-13 00:02:37.060 ,3,1,0.,12.0,0.,12.0,0.,12.0,0.,12.0
1979-07-13 00:02:49.060 ,3,0,0.,12.0,0.,12.0,0.,12.0,0.,12.0
1979-07-13 00:03:01.060 ,3,0,2.,12.0,0.,12.0,0.,12.0,0.,12.0
1979-07-13 00:03:13.060 ,4,1,1.,12.0,0.,12.0,0.,12.0,0.,12.0
1979-07-13 00:03:25.060 ,4,1,0.,12.0,0.,12.0,0.,12.0,0.,12.0
1979-07-13 00:03:37.060 ,4,0,0.,12.0,0.,12.0,0.,12.0,0.,12.0
1979-07-13 00:03:49.060 ,4,0,2.,12.0,0.,12.0,0.,12.0,0.,12.0
1979-07-13 00:04:01.060 ,5,1,0.,12.0,0.,12.0,0.,12.0,0.,12.0
1979-07-13 00:04:13.060 ,5,1,0.,12.0,0.,12.0,0.,12.0,0.,12.0
1979-07-13 00:04:25.060 ,5,0,1.,12.0,0.,12.0,0.,12.0,0.,12.0
1979-07-13 00:04:37.060 ,5,0,0.,12.0,0.,12.0,0.,12.0,0.,12.0
1979-07-13 00:04:49.060 ,6,1,2.,12.0,0.,12.0,0.,12.0,0.,12.0
1979-07-13 00:05:01.060 ,6,1,1.,12.0,0.,12.0,0.,12.0,0.,12.0
1979-07-13 00:05:13.060 ,6,0,0.,12.0,0.,12.0,0.,12.0,1.,12.0
1979-07-13 00:05:25.060 ,6,0,1.,12.0,0.,12.0,0.,12.0,0.,12.0
1979-07-13 00:05:37.060 ,7,1,0.,12.0,0.,12.0,0.,12.0,0.,12.0
1979-07-13 00:05:49.060 ,7,1,0.,12.0,0.,12.0,0.,12.0,0.,12.0
1979-07-13 00:06:01.060 ,7,0,0.,12.0,0.,12.0,0.,12.0,0.,12.0
1979-07-13 00:06:13.060 ,7,0,0.,12.0,0.,12.0,0.,12.0,0.,12.0
1979-07-13 00:06:25.060 ,7,1,0.,12.0,0.,12.0,0.,12.0,0.,12.0
1979-07-13 00:06:37.060 ,7,1,0.,12.0,0.,12.0,0.,12.0,0.,12.0
1979-07-13 00:06:49.060 ,7,0,0.,12.0,0.,12.0,0.,12.0,0.,12.0
1979-07-13 00:07:01.060 ,7,0,0.,12.0,0.,12.0,0.,12.0,0.,12.0
1979-07-13 00:07:13.060 ,6,1,0.,12.0,0.,12.0,0.,12.0,0.,12.0
1979-07-13 00:07:25.060 ,6,1,0.,12.0,0.,12.0,0.,12.0,0.,12.0
1979-07-13 00:07:37.060 ,6,0,2.,12.0,0.,12.0,0.,12.0,0.,12.0
1979-07-13 00:07:49.060 ,6,0,1.,12.0,0.,12.0,0.,12.0,0.,12.0
1979-07-13 00:08:01.060 ,5,1,0.,12.0,0.,12.0,0.,12.0,0.,12.0
1979-07-13 00:08:13.060 ,5,1,1.,12.0,0.,12.0,0.,12.0,0.,12.0
1979-07-13 00:08:25.060 ,5,0,0.,12.0,0.,12.0,0.,12.0,0.,12.0
1979-07-13 00:08:37.060 ,5,0,0.,12.0,0.,12.0,0.,12.0,0.,12.0
1979-07-13 00:08:49.060 ,4,1,2.,12.0,0.,12.0,0.,12.0,0.,12.0
1979-07-13 00:09:01.060 ,4,1,2.,12.0,0.,12.0,0.,12.0,0.,12.0
1979-07-13 00:09:13.060 ,4,0,0.,12.0,0.,12.0,0.,12.0,0.,12.0
1979-07-13 00:09:25.060 ,4,0,0.,12.0,0.,12.0,0.,12.0,0.,12.0
1979-07-13 00:09:37.060 ,3,1,0.,12.0,0.,12.0,0.,12.0,0.,12.0
1979-07-13 00:09:49.060 ,3,1,0.,12.0,0.,12.0,0.,12.0,0.,12.0
1979-07-13 00:10:01.060 ,3,0,1.,12.0,0.,12.0,0.,12.0,0.,12.0
1979-07-13 00:10:13.060 ,3,0,1.,12.0,0.,12.0,0.,12.0,0.,12.0
1979-07-13 00:10:25.060 ,2,1,1.,12.0,0.,12.0,0.,12.0,0.,12.0
1979-07-13 00:10:37.060 ,2,1,0.,12.0,0.,12.0,0.,12.0,0.,12.0
1979-07-13 00:10:49.060 ,2,0,0.,12.0,0.,12.0,0.,12.0,0.,12.0
1979-07-13 00:11:01.060 ,2,0,0.,12.0,0.,12.0,0.,12.0,0.,12.0
1979-07-13 00:11:13.060 ,1,1,0.,12.0,0.,12.0,0.,12.0,0.,12.0
1979-07-13 00:11:25.060 ,1,1,0.,12.0,0.,12.0,0.,12.0,0.,12.0
1979-07-13 00:11:37.060 ,1,0,0.,12.0,0.,12.0,0.,12.0,0.,12.0
1979-07-13 00:11:49.060 ,1,0,2.,12.0,0.,12.0,0.,12.0,0.,12.0
1979-07-13 00:12:01.060 ,0,1,1.,12.0,0.,12.0,0.,12.0,0.,12.0
1979-07-13 00:12:13.060 ,0,1,0.,12.0,0.,12.0,0.,12.0,0.,12.0
1979-07-13 00:12:25.060 ,0,0,0.,12.0,0.,12.0,0.,12.0,0.,12.0
1979-07-13 00:12:37.060 ,0,0,0.,12.0,0.,12.0,0.,12.0,0.,12.0
1979-07-13 00:12:49.060 ,0,1,0.,12.0,0.,12.0,0.,12.0,0.,12.0
1979-07-13 00:13:01.060 ,0,1,1.,12.0,0.,12.0,0.,12.0,0.,12.0
1979-07-13 00:13:13.060 ,0,0,1.,12.0,0.,12.0,0.,12.0,1.,12.0
1979-07-13 00:13:25.060 ,0,0,0.,12.0,0.,12.0,0.,12.0,0.,12.0
1979-07-13 00:13:37.060 ,1,1,0.,12.0,0.,12.0,0.,12.0,0.,12.0
1979-07-13 00:13:49.060 ,1,1,0.,12.0,0.,12.0,0.,12.0,0.,12.0
1979-07-13 00:14:01.060 ,1,0,0.,12.0,0.,12.0,0.,12.0,0.,12.0
1979-07-13 00:14:13.060 ,1,0,0.,12.0,0.,12.0,0.,12.0,0.,12.0
1979-07-13 00:14:25.060 ,2,1,0.,12.0,0.,12.0,0.,12.0,0.,12.0
1979-07-13 00:14:37.060 ,2,1,0.,12.0,0.,12.0,0.,12.0,0.,12.0
1979-07-13 00:14:49.060 ,2,0,0.,12.0,0.,12.0,0.,12.0,0.,12.0
1979-07-13 00:15:01.060 ,2,0,1.,12.0,0.,12.0,0.,12.0,0.,12.0
1979-07-13 00:15:13.060 ,3,1,1.,12.0,0.,12.0,0.,12.0,0.,12.0
1979-07-13 00:15:25.060 ,3,1,2.,12.0,0.,12.0,0.,12.0,0.,12.0
1979-07-13 00:15:37.060 ,3,0,1.,12.0,0.,12.0,0.,12.0,0.,12.0
1979-07-13 00:15:49.060 ,3,0,0.,12.0,0.,12.0,0.,12.0,0.,12.0
1979-07-13 00:16:01.060 ,4,1,1.,12.0,0.,12.0,0.,12.0,0.,12.0
1979-07-13 00:16:13.060 ,4,1,0.,12.0,0.,12.0,0.,12.0,0.,12.0
1979-07-13 00:16:25.060 ,4,0,1.,12.0,0.,12.0,0.,12.0,0.,12.0
1979-07-13 00:16:37.060 ,4,0,2.,12.0,0.,12.0,0.,12.0,0.,12.0
1979-07-13 00:16:49.060 ,5,1,0.,12.0,0.,12.0,0.,12.0,0.,12.0
1979-07-13 00:17:01.060 ,5,1,1.,12.0,0.,12.0,0.,12.0,0.,12.0
1979-07-13 00:17:13.060 ,5,0,1.,12.0,0.,12.0,0.,12.0,0.,12.0
1979-07-13 00:17:25.060 ,5,0,1.,12.0,0.,12.0,0.,12.0,0.,12.0
1979-07-13 00:17:37.060 ,6,1,2.,12.0,0.,12.0,0.,12.0,0.,12.0
1979-07-13 00:17:49.060 ,6,1,1.,12.0,0.,12.0,0.,12.0,0.,12.0
1979-07-13 00:18:01.060 ,6,0,0.,12.0,0.,12.0,0.,12.0,0.,12.0
1979-07-13 00:18:13.060 ,6,0,0.,12.0,0.,12.0,0.,12.0,0.,12.0
1979-07-13 00:18:25.060 ,7,0,0.,12.0,0.,12.0,0.,12.0,0.,12.0
1979-07-13 00:18:37.060 ,7,0,0.,12.0,0.,12.0,0.,12.0,0.,12.0
1979-07-13 00:18:49.060 ,7,0,0.,12.0,0.,12.0,0.,12.0,0.,12.0
1979-07-13 00:19:01.060 ,7,0,0.,12.0,0.,12.0,0.,12.0,0.,12.0
1979-07-13 00:19:13.060 ,4,1,0.,12.0,0.,12.0,0.,12.0,0.,12.0
1979-07-13 00:19:25.060 ,4,1,1.,12.0,0.,12.0,0.,12.0,0.,12.0
1979-07-13 00:19:37.060 ,0,1,1.,12.0,0.,12.0,0.,12.0,1.,12.0
1979-07-13 00:19:49.060 ,0,1,0.,12.0,0.,12.0,0.,12.0,0.,12.0
1979-07-13 00:20:01.060 ,3,1,1.,12.0,0.,12.0,0.,12.0,0.,12.0
1979-07-13 00:20:13.060 ,3,1,0.,12.0,0.,12.0,0.,12.0,0.,12.0
1979-07-13 00:20:25.060 ,7,1,0.,12.0,0.,12.0,0.,12.0,0.,12.0
1979-07-13 00:20:37.060 ,7,1,0.,12.0,0.,12.0,0.,12.0,0.,12.0
1979-07-13 00:20:49.060 ,4,1,0.,12.0,0.,12.0,0.,12.0,0.,12.0
1979-07-13 00:21:01.060 ,4,1,0.,12.0,0.,12.0,0.,12.0,0.,12.0
1979-07-13 00:21:13.060 ,0,1,0.,12.0,0.,12.0,0.,12.0,0.,12.0
1979-07-13 00:21:25.060 ,0,1,0.,12.0,0.,12.0,0.,12.0,0.,12.0
1979-07-13 00:21:37.060 ,3,1,0.,12.0,0.,12.0,0.,12.0,1.,12.0
1979-07-13 00:21:49.060 ,3,1,0.,12.0,0.,12.0,0.,12.0,0.,12.0
1979-07-13 00:22:01.060 ,7,1,1.,12.0,0.,12.0,0.,12.0,0.,12.0
1979-07-13 00:22:13.060 ,7,1,0.,12.0,0.,12.0,0.,12.0,0.,12.0
1979-07-13 00:22:25.060 ,4,1,0.,12.0,0.,12.0,0.,12.0,0.,12.0
1979-07-13 00:22:37.060 ,4,1,1.,12.0,0.,12.0,0.,12.0,0.,12.0
1979-07-13 00:22:49.060 ,0,1,0.,12.0,0.,12.0,0.,12.0,0.,12.0
1979-07-13 00:23:01.060 ,0,1,1.,12.0,0.,12.0,0.,12.0,0.,12.0
1979-07-13 00:23:13.060 ,3,1,0.,12.0,0.,12.0,0.,12.0,0.,12.0
1979-07-13 00:23:25.060 ,3,1,0.,12.0,0.,12.0,0.,12.0,0.,12.0
1979-07-13 00:23:37.060 ,7,1,0.,12.0,0.,12.0,0.,12.0,1.,12.0
1979-07-13 00:23:49.060 ,7,1,2.,12.0,0.,12.0,0.,12.0,0.,12.0
1979-07-13 00:24:01.060 ,4,1,0.,12.0,0.,12.0,0.,12.0,0.,12.0
1979-07-13 00:24:13.060 ,4,1,1.,12.0,0.,12.0,0.,12.0,0.,12.0
1979-07-13 00:24:25.060 ,0,1,1.,12.0,0.,12.0,0.,12.0,0.,12.0
1979-07-13 00:24:37.060 ,0,1,1.,12.0,0.,12.0,0.,12.0,0.,12.0
1979-07-13 00:24:49.060 ,3,1,0.,12.0,0.,12.0,0.,12.0,0.,12.0
1979-07-13 00:25:01.060 ,3,1,1.,12.0,0.,12.0,0.,12.0,0.,12.0
1979-07-13 00:25:13.060 ,7,1,2.,12.0,0.,12.0,0.,12.0,1.,12.0
1979-07-13 00:25:25.060 ,7,1,1.,12.0,0.,12.0,0.,12.0,0.,12.0
1979-07-13 00:25:37.060 ,4,1,0.,12.0,0.,12.0,0.,12.0,0.,12.0
1979-07-13 00:25:49.060 ,4,1,0.,12.0,0.,12.0,0.,12.0,0.,12.0
1979-07-13 00:26:01.060 ,0,1,1.,12.0,0.,12.0,0.,12.0,0.,12.0
1979-07-13 00:26:13.060 ,0,1,1.,12.0,0.,12.0,0.,12.0,0.,12.0
1979-07-13 00:26:25.060 ,3,1,0.,12.0,0.,12.0,0.,12.0,0.,12.0
1979-07-13 00:26:37.060 ,3,1,1.,12.0,0.,12.0,0.,12.0,0.,12.0
1979-07-13 00:26:49.060 ,7,1,0.,12.0,0.,12.0,0.,12.0,0.,12.0
1979-07-13 00:27:01.060 ,7,1,1.,12.0,0.,12.0,0.,12.0,0.,12.0
1979-07-13 00:27:13.060 ,4,1,1.,12.0,0.,12.0,0.,12.0,0.,12.0
1979-07-13 00:27:25.060 ,4,1,0.,12.0,0.,12.0,0.,12.0,0.,12.0
1979-07-13 00:27:37.060 ,0,1,1.,12.0,0.,12.0,0.,12.0,0.,12.0
1979-07-13 00:27:49.060 ,0,1,0.,12.0,0.,12.0,0.,12.0,0.,12.0
1979-07-13 00:28:01.060 ,3,1,0.,12.0,0.,12.0,0.,12.0,0.,12.0
1979-07-13 00:28:13.060 ,3,1,1.,12.0,0.,12.0,0.,12.0,0.,12.0
1979-07-13 00:28:25.060 ,7,1,0.,12.0,0.,12.0,0.,12.0,0.,12.0
1979-07-13 00:28:37.060 ,7,1,1.,12.0,0.,12.0,0.,12.0,0.,12.0
1979-07-13 00:28:49.060 ,4,1,0.,12.0,0.,12.0,0.,12.0,0.,12.0
1979-07-13 00:29:01.060 ,4,1,0.,12.0,0.,12.0,0.,12.0,0.,12.0
1979-07-13 00:29:13.060 ,0,1,0.,12.0,0.,12.0,0.,12.0,0.,12.0
1979-07-13 00:29:25.060 ,0,1,0.,12.0,0.,12.0,0.,12.0,0.,12.0
1979-07-13 00:29:37.060 ,0,0,0.,12.0,0.,12.0,0.,12.0,0.,12.0
1979-07-13 00:29:49.060 ,0,0,1.,12.0,0.,12.0,0.,12.0,0.,12.0
1979-07-13 00:30:01.060 ,0,0,1.,12.0,0.,12.0,0.,12.0,0.,12.0
1979-07-13 00:30:13.060 ,0,0,0.,12.0,0.,12.0,0.,12.0,0.,12.0
1979-07-13 00:30:25.060 ,5,1,0.,12.0,0.,12.0,0.,12.0,0.,12.0
1979-07-13 00:30:37.060 ,5,1,1.,12.0,0.,12.0,0.,12.0,0.,12.0
1979-07-13 00:30:49.060 ,5,0,1.,12.0,0.,12.0,0.,12.0,0.,12.0
1979-07-13 00:31:01.060 ,5,0,1.,12.0,0.,12.0,0.,12.0,0.,12.0
1979-07-13 00:31:13.060 ,4,1,0.,12.0,0.,12.0,0.,12.0,0.,12.0
1979-07-13 00:31:25.060 ,4,1,0.,12.0,0.,12.0,0.,12.0,1.,12.0
1979-07-13 00:31:37.060 ,4,0,0.,12.0,0.,12.0,0.,12.0,0.,12.0
1979-07-13 00:31:49.060 ,4,0,1.,12.0,0.,12.0,0.,12.0,0.,12.0
1979-07-13 00:32:01.060 ,3,1,0.,12.0,0.,12.0,0.,12.0,0.,12.0
1979-07-13 00:32:13.060 ,3,1,0.,12.0,0.,12.0,0.,12.0,0.,12.0
1979-07-13 00:32:25.060 ,3,0,0.,12.0,0.,12.0,0.,12.0,0.,12.0
1979-07-13 00:32:37.060 ,3,0,1.,12.0,0.,12.0,0.,12.0,0.,12.0
1979-07-13 00:32:49.060 ,2,1,0.,12.0,0.,12.0,0.,12.0,0.,12.0
1979-07-13 00:33:01.060 ,2,1,1.,12.0,0.,12.0,0.,12.0,0.,12.0
1979-07-13 00:33:13.060 ,2,0,2.,12.0,0.,12.0,0.,12.0,0.,12.0
1979-07-13 00:33:25.060 ,2,0,0.,12.0,0.,12.0,0.,12.0,0.,12.0
1979-07-13 00:33:37.060 ,1,1,2.,12.0,0.,12.0,0.,12.0,0.,12.0
1979-07-13 00:33:49.060 ,1,1,0.,12.0,0.,12.0,0.,12.0,0.,12.0
1979-07-13 00:34:01.060 ,1,0,1.,12.0,0.,12.0,0.,12.0,0.,12.0
1979-07-13 00:34:13.060 ,1,0,0.,12.0,0.,12.0,0.,12.0,0.,12.0
1979-07-13 00:34:25.060 ,0,1,1.,12.0,0.,12.0,0.,12.0,0.,12.0
1979-07-13 00:34:37.060 ,0,1,0.,12.0,0.,12.0,0.,12.0,0.,12.0
1979-07-13 00:34:49.060 ,0,0,0.,12.0,0.,12.0,0.,12.0,0.,12.0
1979-07-13 00:35:01.060 ,0,0,0.,12.0,0.,12.0,0.,12.0,0.,12.0
1979-07-13 00:35:13.060 ,0,1,1.,12.0,0.,12.0,0.,12.0,0.,12.0
1979-07-13 00:35:25.060 ,0,1,1.,12.0,0.,12.0,0.,12.0,1.,12.0
1979-07-13 00:35:37.060 ,0,0,0.,12.0,0.,12.0,0.,12.0,0.,12.0
1979-07-13 00:35:49.060 ,0,0,0.,12.0,0.,12.0,0.,12.0,0.,12.0
1979-07-13 00:36:01.060 ,1,1,0.,12.0,0.,12.0,0.,12.0,0.,12.0
1979-07-13 00:36:13.060 ,1,1,0.,12.0,0.,12.0,0.,12.0,0.,12.0
1979-07-13 00:36:25.060 ,1,0,0.,12.0,0.,12.0,0.,12.0,0.,12.0
1979-07-13 00:36:37.060 ,1,0,0.,12.0,0.,12.0,0.,12.0,0.,12.0
1979-07-13 00:36:49.060 ,2,1,0.,12.0,0.,12.0,0.,12.0,0.,12.0
1979-07-13 00:37:01.060 ,2,1,0.,12.0,0.,12.0,0.,12.0,0.,12.0
1979-07-13 00:37:13.060 ,2,0,0.,12.0,0.,12.0,0.,12.0,0.,12.0
1979-07-13 00:37:25.060 ,2,0,1.,12.0,0.,12.0,0.,12.0,0.,12.0
1979-07-13 00:37:37.060 ,3,1,0.,12.0,0.,12.0,0.,12.0,0.,12.0
1979-07-13 00:37:49.060 ,3,1,0.,12.0,0.,12.0,0.,12.0,0.,12.0
1979-07-13 00:38:01.060 ,3,0,1.,12.0,0.,12.0,0.,12.0,0.,12.0
1979-07-13 00:38:13.060 ,3,0,1.,12.0,0.,12.0,0.,12.0,0.,12.0
1979-07-13 00:38:25.060 ,4,1,1.,12.0,0.,12.0,0.,12.0,0.,12.0
1979-07-13 00:38:37.060 ,4,1,2.,12.0,0.,12.0,0.,12.0,0.,12.0
1979-07-13 00:38:49.060 ,4,0,2.,12.0,0.,12.0,0.,12.0,0.,12.0
1979-07-13 00:39:01.060 ,4,0,0.,12.0,0.,12.0,0.,12.0,0.,12.0
1979-07-13 00:39:13.060 ,5,1,1.,12.0,0.,12.0,0.,12.0,0.,12.0
1979-07-13 00:39:25.060 ,5,1,1.,12.0,0.,12.0,0.,12.0,0.,12.0
1979-07-13 00:39:37.060 ,5,0,0.,12.0,0.,12.0,0.,12.0,0.,12.0
1979-07-13 00:39:49.060 ,5,0,1.,12.0,0.,12.0,0.,12.0,0.,12.0
1979-07-13 00:40:01.060 ,6,1,1.,12.0,0.,12.0,0.,12.0,0.,12.0
1979-07-13 00:40:13.060 ,6,1,4.,12.0,0.,12.0,0.,12.0,0.,12.0
1979-07-13 00:40:25.060 ,6,0,0.,12.0,0.,12.0,0.,12.0,0.,12.0
1979-07-13 00:40:37.060 ,6,0,0.,12.0,0.,12.0,0.,12.0,2.,12.0
1979-07-13 00:40:49.060 ,7,1,0.,12.0,0.,12.0,0.,12.0,0.,12.0
1979-07-13 00:41:01.060 ,7,1,0.,12.0,0.,12.0,0.,12.0,0.,12.0
1979-07-13 00:41:13.060 ,7,0,0.,12.0,0.,12.0,0.,12.0,1.,12.0
1979-07-13 00:41:25.060 ,7,0,0.,12.0,0.,12.0,0.,12.0,0.,12.0
1979-07-13 00:41:37.060 ,7,1,0.,12.0,0.,12.0,0.,12.0,1.,12.0
1979-07-13 00:41:49.060 ,7,1,0.,12.0,0.,12.0,0.,12.0,0.,12.0
1979-07-13 00:42:01.060 ,7,0,0.,12.0,0.,12.0,0.,12.0,0.,12.0
1979-07-13 00:42:13.060 ,7,0,0.,12.0,0.,12.0,0.,12.0,0.,12.0
1979-07-13 00:42:25.060 ,6,1,0.,12.0,0.,12.0,0.,12.0,1.,12.0
1979-07-13 00:42:37.060 ,6,1,1.,12.0,0.,12.0,0.,12.0,0.,12.0
1979-07-13 00:42:49.060 ,6,0,0.,12.0,0.,12.0,0.,12.0,0.,12.0
1979-07-13 00:43:01.060 ,6,0,0.,12.0,0.,12.0,0.,12.0,0.,12.0
1979-07-13 00:43:13.060 ,5,1,2.,12.0,0.,12.0,0.,12.0,0.,12.0
1979-07-13 00:43:25.060 ,5,1,1.,12.0,0.,12.0,0.,12.0,1.,12.0
1979-07-13 00:43:37.060 ,5,0,0.,12.0,0.,12.0,0.,12.0,0.,12.0
1979-07-13 00:43:49.060 ,5,0,1.,12.0,0.,12.0,0.,12.0,0.,12.0
1979-07-13 00:44:01.060 ,4,1,0.,12.0,0.,12.0,0.,12.0,0.,12.0
1979-07-13 00:44:13.060 ,4,1,2.,12.0,0.,12.0,0.,12.0,0.,12.0
1979-07-13 00:44:25.060 ,4,0,0.,12.0,0.,12.0,0.,12.0,0.,12.0
1979-07-13 00:44:37.060 ,4,0,2.,12.0,0.,12.0,0.,12.0,0.,12.0
1979-07-13 00:44:49.060 ,3,1,0.,12.0,0.,12.0,0.,12.0,0.,12.0
1979-07-13 00:45:01.060 ,3,1,1.,12.0,0.,12.0,0.,12.0,0.,12.0
1979-07-13 00:45:13.060 ,3,0,0.,12.0,0.,12.0,0.,12.0,0.,12.0
1979-07-13 00:45:25.060 ,3,0,0.,12.0,0.,12.0,0.,12.0,0.,12.0
1979-07-13 00:45:37.060 ,2,1,1.,12.0,0.,12.0,0.,12.0,0.,12.0
1979-07-13 00:45:49.060 ,2,1,1.,12.0,0.,12.0,0.,12.0,0.,12.0
1979-07-13 00:46:01.060 ,2,0,1.,12.0,0.,12.0,0.,12.0,0.,12.0
1979-07-13 00:46:13.060 ,2,0,1.,12.0,0.,12.0,0.,12.0,0.,12.0
1979-07-13 00:46:25.060 ,1,1,1.,12.0,0.,12.0,0.,12.0,0.,12.0
1979-07-13 00:46:37.060 ,1,1,0.,12.0,0.,12.0,0.,12.0,0.,12.0
1979-07-13 00:46:49.060 ,1,0,0.,12.0,0.,12.0,0.,12.0,0.,12.0
1979-07-13 00:47:01.060 ,1,0,1.,12.0,0.,12.0,0.,12.0,0.,12.0
1979-07-13 00:47:13.060 ,0,1,1.,12.0,0.,12.0,0.,12.0,0.,12.0
1979-07-13 00:47:25.060 ,0,1,0.,12.0,0.,12.0,0.,12.0,0.,12.0
1979-07-13 00:47:37.060 ,0,0,0.,12.0,0.,12.0,0.,12.0,0.,12.0
1979-07-13 00:47:49.060 ,0,0,0.,12.0,0.,12.0,0.,12.0,0.,12.0
1979-07-13 00:48:01.060 ,0,1,0.,12.0,0.,12.0,0.,12.0,0.,12.0
1979-07-13 00:48:13.060 ,0,1,0.,12.0,0.,12.0,0.,12.0,0.,12.0
1979-07-13 00:48:25.060 ,0,0,0.,12.0,0.,12.0,0.,12.0,0.,12.0
1979-07-13 00:48:37.060 ,0,0,0.,12.0,0.,12.0,0.,12.0,1.,12.0
1979-07-13 00:48:49.060 ,1,1,0.,12.0,0.,12.0,0.,12.0,0.,12.0
1979-07-13 00:49:01.060 ,1,1,1.,12.0,0.,12.0,0.,12.0,0.,12.0
1979-07-13 00:49:13.060 ,1,0,1.,12.0,0.,12.0,0.,12.0,1.,12.0
1979-07-13 00:49:25.060 ,1,0,2.,12.0,0.,12.0,0.,12.0,0.,12.0
1979-07-13 00:49:37.060 ,2,1,0.,12.0,0.,12.0,0.,12.0,1.,12.0
1979-07-13 00:49:49.060 ,2,1,1.,12.0,0.,12.0,0.,12.0,0.,12.0
1979-07-13 00:50:01.060 ,2,0,0.,12.0,0.,12.0,0.,12.0,0.,12.0
1979-07-13 00:50:13.060 ,2,0,0.,12.0,0.,12.0,0.,12.0,0.,12.0
1979-07-13 00:50:25.060 ,3,1,0.,12.0,0.,12.0,0.,12.0,0.,12.0
1979-07-13 00:50:37.060 ,3,1,0.,12.0,0.,12.0,0.,12.0,0.,12.0
1979-07-13 00:50:49.060 ,3,0,1.,12.0,0.,12.0,0.,12.0,0.,12.0
1979-07-13 00:51:01.060 ,3,0,0.,12.0,0.,12.0,0.,12.0,1.,12.0
1979-07-13 00:51:13.060 ,4,1,2.,12.0,0.,12.0,0.,12.0,0.,12.0
1979-07-13 00:51:25.060 ,4,1,0.,12.0,0.,12.0,0.,12.0,0.,12.0
1979-07-13 00:51:37.060 ,4,0,0.,12.0,0.,12.0,0.,12.0,0.,12.0
1979-07-13 00:51:49.060 ,4,0,0.,12.0,0.,12.0,0.,12.0,0.,12.0
1979-07-13 00:52:01.050 ,5,1,1.,12.0,0.,12.0,0.,12.0,0.,12.0
1979-07-13 00:52:13.050 ,5,1,0.,12.0,0.,12.0,0.,12.0,0.,12.0
1979-07-13 00:52:25.050 ,5,0,0.,12.0,0.,12.0,0.,12.0,0.,12.0
1979-07-13 00:52:37.050 ,5,0,0.,12.0,0.,12.0,0.,12.0,0.,12.0
1979-07-13 00:52:49.050 ,6,1,0.,12.0,0.,12.0,0.,12.0,0.,12.0
1979-07-13 00:53:01.050 ,6,1,0.,12.0,0.,12.0,0.,12.0,0.,12.0
1979-07-13 00:53:13.050 ,6,0,0.,12.0,0.,12.0,0.,12.0,0.,12.0
1979-07-13 00:53:25.050 ,6,0,0.,12.0,0.,12.0,0.,12.0,0.,12.0
1979-07-13 00:53:37.050 ,7,1,0.,12.0,0.,12.0,0.,12.0,0.,12.0
1979-07-13 00:53:49.050 ,7,1,0.,12.0,0.,12.0,0.,12.0,0.,12.0
1979-07-13 00:54:01.050 ,7,0,0.,12.0,0.,12.0,0.,12.0,0.,12.0
1979-07-13 00:54:13.050 ,7,0,0.,12.0,0.,12.0,0.,12.0,0.,12.0
1979-07-13 00:54:25.050 ,7,1,0.,12.0,0.,12.0,0.,12.0,0.,12.0
1979-07-13 00:54:37.050 ,7,1,0.,12.0,0.,12.0,0.,12.0,0.,12.0
1979-07-13 00:54:49.050 ,7,0,0.,12.0,0.,12.0,0.,12.0,0.,12.0
1979-07-13 00:55:01.050 ,7,0,0.,12.0,0.,12.0,0.,12.0,0.,12.0
1979-07-13 00:55:13.050 ,6,1,0.,12.0,0.,12.0,0.,12.0,0.,12.0
1979-07-13 00:55:25.050 ,6,1,0.,12.0,0.,12.0,0.,12.0,1.,12.0
1979-07-13 00:55:37.050 ,6,0,1.,12.0,0.,12.0,0.,12.0,0.,12.0
1979-07-13 00:55:49.050 ,6,0,1.,12.0,0.,12.0,0.,12.0,0.,12.0
1979-07-13 00:56:01.050 ,5,1,0.,12.0,0.,12.0,0.,12.0,0.,12.0
1979-07-13 00:56:13.050 ,5,1,1.,12.0,0.,12.0,0.,12.0,0.,12.0
1979-07-13 00:56:25.050 ,5,0,,0,,0,,0,,0
1979-07-13 00:56:37.050 ,5,0,0.,12.0,0.,12.0,0.,12.0,1.,12.0
1979-07-13 00:56:49.050 ,4,1,1.,12.0,0.,12.0,0.,12.0,0.,12.0
1979-07-13 00:57:01.050 ,4,1,1.,12.0,0.,12.0,0.,12.0,0.,12.0
1979-07-13 00:57:13.050 ,4,0,1.,12.0,0.,12.0,0.,12.0,0.,12.0
1979-07-13 00:57:25.050 ,4,0,0.,12.0,0.,12.0,0.,12.0,0.,12.0
1979-07-13 00:57:37.050 ,3,1,0.,12.0,0.,12.0,0.,12.0,0.,12.0
1979-07-13 00:57:49.050 ,3,1,0.,12.0,0.,12.0,0.,12.0,0.,12.0
1979-07-13 00:58:01.050 ,3,0,0.,12.0,0.,12.0,0.,12.0,0.,12.0
1979-07-13 00:58:13.050 ,3,0,0.,12.0,0.,12.0,0.,12.0,1.,12.0
1979-07-13 00:58:25.050 ,2,1,0.,12.0,0.,12.0,0.,12.0,0.,12.0
1979-07-13 00:58:37.050 ,2,1,0.,12.0,0.,12.0,0.,12.0,0.,12.0
1979-07-13 00:58:49.050 ,2,0,0.,12.0,0.,12.0,0.,12.0,0.,12.0
1979-07-13 00:59:01.050 ,2,0,0.,12.0,0.,12.0,0.,12.0,0.,12.0
1979-07-13 00:59:13.050 ,1,1,1.,12.0,0.,12.0,0.,12.0,1.,12.0
1979-07-13 00:59:25.050 ,1,1,0.,12.0,0.,12.0,0.,12.0,0.,12.0
1979-07-13 00:59:37.050 ,1,0,0.,12.0,0.,12.0,0.,12.0,0.,12.0
1979-07-13 00:59:49.050 ,1,0,0.,12.0,0.,12.0,0.,12.0,0.,12.0
1979-07-13 01:00:01.050 ,0,1,0.,12.0,0.,12.0,0.,12.0,0.,12.0
1979-07-13 01:00:13.050 ,0,1,0.,12.0,0.,12.0,0.,12.0,0.,12.0
1979-07-13 01:00:25.060 ,0,0,0.,12.0,0.,12.0,0.,12.0,0.,12.0
1979-07-13 01:00:37.060 ,0,0,0.,12.0,0.,12.0,0.,12.0,0.,12.0
1979-07-13 01:00:49.060 ,0,1,0.,12.0,0.,12.0,0.,12.0,1.,12.0
1979-07-13 01:01:01.060 ,0,1,2.,12.0,0.,12.0,0.,12.0,0.,12.0
1979-07-13 01:01:13.060 ,0,0,0.,12.0,0.,12.0,0.,12.0,0.,12.0
1979-07-13 01:01:25.060 ,0,0,1.,12.0,0.,12.0,0.,12.0,0.,12.0
1979-07-13 01:01:37.060 ,1,1,0.,12.0,0.,12.0,0.,12.0,0.,12.0
1979-07-13 01:01:49.060 ,1,1,0.,12.0,0.,12.0,0.,12.0,0.,12.0
1979-07-13 01:02:01.060 ,1,0,1.,12.0,0.,12.0,0.,12.0,0.,12.0
1979-07-13 01:02:13.060 ,1,0,0.,12.0,0.,12.0,0.,12.0,0.,12.0
1979-07-13 01:02:25.050 ,2,1,1.,12.0,0.,12.0,0.,12.0,0.,12.0
1979-07-13 01:02:37.060 ,2,1,0.,12.0,0.,12.0,0.,12.0,0.,12.0
1979-07-13 01:02:49.050 ,2,0,0.,12.0,0.,12.0,0.,12.0,0.,12.0
1979-07-13 01:03:01.060 ,2,0,0.,12.0,0.,12.0,0.,12.0,0.,12.0
1979-07-13 01:03:13.050 ,3,1,0.,12.0,0.,12.0,0.,12.0,0.,12.0
1979-07-13 01:03:25.060 ,3,1,0.,12.0,0.,12.0,0.,12.0,1.,12.0
1979-07-13 01:03:37.050 ,3,0,1.,12.0,0.,12.0,0.,12.0,1.,12.0
1979-07-13 01:03:49.060 ,3,0,0.,12.0,0.,12.0,0.,12.0,0.,12.0
1979-07-13 01:04:01.050 ,4,1,0.,12.0,0.,12.0,0.,12.0,0.,12.0
1979-07-13 01:04:13.050 ,4,1,0.,12.0,0.,12.0,0.,12.0,0.,12.0
1979-07-13 01:04:25.060 ,4,0,0.,12.0,0.,12.0,0.,12.0,1.,12.0
1979-07-13 01:04:37.060 ,4,0,1.,12.0,0.,12.0,0.,12.0,0.,12.0
1979-07-13 01:04:49.060 ,5,1,1.,12.0,0.,12.0,0.,12.0,0.,12.0
1979-07-13 01:05:01.060 ,5,1,1.,12.0,0.,12.0,0.,12.0,0.,12.0
1979-07-13 01:05:13.060 ,5,0,0.,12.0,0.,12.0,0.,12.0,0.,12.0
1979-07-13 01:05:25.060 ,5,0,1.,12.0,0.,12.0,0.,12.0,0.,12.0
1979-07-13 01:05:37.060 ,6,1,0.,12.0,0.,12.0,0.,12.0,0.,12.0
1979-07-13 01:05:49.060 ,6,1,0.,12.0,0.,12.0,0.,12.0,0.,12.0
1979-07-13 01:06:01.060 ,6,0,1.,12.0,0.,12.0,0.,12.0,0.,12.0
1979-07-13 01:06:13.060 ,6,0,0.,12.0,0.,12.0,0.,12.0,0.,12.0
1979-07-13 01:06:25.060 ,7,0,0.,12.0,0.,12.0,0.,12.0,0.,12.0
1979-07-13 01:06:37.060 ,7,0,0.,12.0,0.,12.0,0.,12.0,0.,12.0
1979-07-13 01:06:49.060 ,7,0,0.,12.0,0.,12.0,0.,12.0,0.,12.0
1979-07-13 01:07:01.060 ,7,0,0.,12.0,0.,12.0,0.,12.0,0.,12.0
1979-07-13 01:07:13.060 ,4,1,0.,12.0,0.,12.0,0.,12.0,0.,12.0
1979-07-13 01:07:25.060 ,4,1,1.,12.0,0.,12.0,0.,12.0,0.,12.0
1979-07-13 01:07:37.060 ,0,1,0.,12.0,0.,12.0,0.,12.0,0.,12.0
1979-07-13 01:07:49.060 ,0,1,0.,12.0,0.,12.0,0.,12.0,0.,12.0
1979-07-13 01:08:01.060 ,3,1,0.,12.0,0.,12.0,0.,12.0,1.,12.0
1979-07-13 01:08:13.060 ,3,1,0.,12.0,0.,12.0,0.,12.0,1.,12.0
1979-07-13 01:08:25.060 ,7,1,2.,12.0,0.,12.0,0.,12.0,0.,12.0
1979-07-13 01:08:37.050 ,7,1,0.,12.0,0.,12.0,0.,12.0,0.,12.0
1979-07-13 01:08:49.050 ,4,1,0.,12.0,0.,12.0,0.,12.0,0.,12.0
1979-07-13 01:09:01.050 ,4,1,1.,12.0,0.,12.0,0.,12.0,0.,12.0
1979-07-13 01:09:13.050 ,0,1,1.,12.0,0.,12.0,0.,12.0,0.,12.0
1979-07-13 01:09:25.050 ,0,1,0.,12.0,0.,12.0,0.,12.0,0.,12.0
1979-07-13 01:09:37.050 ,3,1,0.,12.0,0.,12.0,0.,12.0,0.,12.0
1979-07-13 01:09:49.050 ,3,1,2.,12.0,0.,12.0,0.,12.0,0.,12.0
1979-07-13 01:10:01.050 ,7,1,1.,12.0,0.,12.0,0.,12.0,0.,12.0
1979-07-13 01:10:13.050 ,7,1,1.,12.0,0.,12.0,0.,12.0,0.,12.0
1979-07-13 01:10:25.050 ,4,1,0.,12.0,0.,12.0,0.,12.0,0.,12.0
1979-07-13 01:10:37.050 ,4,1,0.,12.0,0.,12.0,0.,12.0,0.,12.0
1979-07-13 01:10:49.050 ,0,1,0.,12.0,0.,12.0,0.,12.0,0.,12.0
1979-07-13 01:11:01.050 ,0,1,1.,12.0,0.,12.0,0.,12.0,0.,12.0
1979-07-13 01:11:13.050 ,3,1,1.,12.0,0.,12.0,0.,12.0,0.,12.0
1979-07-13 01:11:25.050 ,3,1,1.,12.0,0.,12.0,0.,12.0,2.,12.0
1979-07-13 01:11:37.050 ,7,1,0.,12.0,0.,12.0,0.,12.0,0.,12.0
1979-07-13 01:11:49.050 ,7,1,0.,12.0,0.,12.0,0.,12.0,0.,12.0
1979-07-13 01:12:01.050 ,4,1,0.,12.0,0.,12.0,0.,12.0,0.,12.0
1979-07-13 01:12:13.050 ,4,1,0.,12.0,0.,12.0,0.,12.0,0.,12.0
1979-07-13 01:12:25.050 ,0,1,0.,12.0,0.,12.0,0.,12.0,0.,12.0
1979-07-13 01:12:37.050 ,0,1,1.,12.0,0.,12.0,0.,12.0,0.,12.0
1979-07-13 01:12:49.050 ,3,1,0.,12.0,0.,12.0,0.,12.0,0.,12.0
1979-07-13 01:13:01.050 ,3,1,1.,12.0,0.,12.0,0.,12.0,0.,12.0
1979-07-13 01:13:13.050 ,7,1,1.,12.0,0.,12.0,0.,12.0,0.,12.0
1979-07-13 01:13:25.050 ,7,1,0.,12.0,0.,12.0,0.,12.0,0.,12.0
1979-07-13 01:13:37.050 ,4,1,0.,12.0,0.,12.0,0.,12.0,0.,12.0
1979-07-13 01:13:49.050 ,4,1,2.,12.0,0.,12.0,0.,12.0,0.,12.0
1979-07-13 01:14:01.050 ,0,1,1.,12.0,0.,12.0,0.,12.0,1.,12.0
1979-07-13 01:14:13.050 ,0,1,1.,12.0,0.,12.0,0.,12.0,0.,12.0
1979-07-13 01:14:25.050 ,3,1,0.,12.0,0.,12.0,0.,12.0,1.,12.0
1979-07-13 01:14:37.050 ,3,1,1.,12.0,0.,12.0,0.,12.0,0.,12.0
1979-07-13 01:14:49.050 ,7,1,1.,12.0,0.,12.0,0.,12.0,0.,12.0
1979-07-13 01:15:01.050 ,7,1,1.,12.0,0.,12.0,0.,12.0,0.,12.0
1979-07-13 01:15:13.050 ,4,1,0.,12.0,0.,12.0,0.,12.0,0.,12.0
1979-07-13 01:15:25.050 ,4,1,2.,12.0,0.,12.0,0.,12.0,0.,12.0
1979-07-13 01:15:37.050 ,0,1,0.,12.0,0.,12.0,0.,12.0,0.,12.0
1979-07-13 01:15:49.050 ,0,1,0.,12.0,0.,12.0,0.,12.0,0.,12.0
1979-07-13 01:16:01.050 ,3,1,0.,12.0,0.,12.0,0.,12.0,0.,12.0
1979-07-13 01:16:13.050 ,3,1,0.,12.0,0.,12.0,0.,12.0,0.,12.0
1979-07-13 01:16:25.050 ,7,1,0.,12.0,0.,12.0,0.,12.0,0.,12.0
1979-07-13 01:16:37.050 ,7,1,0.,12.0,0.,12.0,0.,12.0,0.,12.0
1979-07-13 01:16:49.050 ,4,1,0.,12.0,0.,12.0,0.,12.0,0.,12.0
1979-07-13 01:17:01.050 ,4,1,0.,12.0,0.,12.0,0.,12.0,0.,12.0
1979-07-13 01:17:13.050 ,0,1,0.,12.0,0.,12.0,0.,12.0,0.,12.0
1979-07-13 01:17:25.050 ,0,1,0.,12.0,0.,12.0,0.,12.0,0.,12.0